User: anonymous
Location: Fort Wayne
(41.1310°N, 85.1290°W)
Time: 09:10:18
(UTC-04:00)
Language:

SL-08 RB Rocket - Orbit

View from above orbital plane
View from above orbital plane
View from above satellite
View from above satellite

Ground track
Ground track

The orbit data is extracted from the following two-line orbital elements,

1 26387U 00033D   14206.27384350  .00000202  00000-0  44333-4 0  5617
2 26387 098.1033 273.5582 0028296 093.6710 307.2649 14.67318622752675
Epoch (UTC): 25 July 2014 06:34:20
Eccentricity: 0.0028296
inclination: 98.1033°
perigee height: 650 km
apogee height: 689 km
right ascension of ascending node: 273.5582°
argument of perigee: 93.6710°
revolutions per day: 14.67318622
mean anomaly at epoch: 307.2649°
orbit number at epoch: 75267

The dashed part of the orbit path shows where the satellite is in the earth's shadow,  

DLR